SCP
-0 -0 -0 -0 -0 -0 0 0 0 0 0 0 0 0 0 0 0 0 0 0 0 0 0 0 0 0 0 0 0 0 -0 0 0 0 0 0 0 0 0 0 0 0 0 0
-0 -0 -0 -0 -0 0 0 0 0 0 0 0 0 0 0 0 0 0 0 0 0 0 0 0 0 0 0 0 0 0 0 0 0 0 0 0 0 0 0 0 0 0 0 0
-0 -0 -0 -0 -0 -0 0 0 0 0 0 0 0 0 0 0 0 0 0 0 0 0 0 0 0 0 0 0 0 0 0 0 0 0 0 0 0 0 0 0 0 0 0 0
-0 -0 -0 -0 -0 -0 0 0 0 0 0 0 0 0 0 0 0 0 0 0 0 0 0 0 0 0 0 0 0 0 0 0 0 0 0 0 0 0 0 0 0 0 0 0
0 0 0 -0 -0 -0 0 0 0 0 0 0 0 0 0 0 0 0 0 0 0 0 0 0 0 0 0 0 0 0 0 0 0 0 0 0 0 0 0 0 0 0 0 0
0 0 -0 0 -0 0 0 0 0 0 0 0 0 0 0 0 0 0 0 0 0 0 0 0 0 0 0 0 0 0 0 0 0 0 0 0 0 0 0 0 0 0 0 0
0 -0 -0 -0 -0 -0 0 0 0 0 0 0 0 0 0 0 0 0 0 0 0 0 0 0 0 0 0 0 0 0 0 0 0 0 0 0 0 0 0 0 0 0 0 0
0 -0 -0 -0 -0 -0 0 0 0 0 0 0 0 0 0 0 0 0 0 0 0 0 0 0 0 0 0 0 0 0 0 0 0 0 0 0 0 0 0 0 0 0 0 0
0 0 -0 -0 0 -0 0 0 0 0 0 0 0 0 0 0 0 0 0 0 0 0 0 0 0 0 0 0 0 0 0 0 0 0 0 0 0 0 0 0 0 0 0 0
0 0 -0 -0 -0 -0 0 0 0 0 0 0 0 0 0 0 0 0 0 0 0 0 0 0 0 0 0 0 0 0 0 0 0 0 0 0 0 0 0 0 0 0 0 0
0 0 0 -0 -0 -0 0 0 0 0 0 0 0 0 0 0 0 0 0 0 0 0 0 0 0 0 0 0 0 0 0 0 0 0 0 0 0 0 0 0 0 0 0 0
0 0 0 -0 -0 -0 0 0 0 0 0 0 0 0 0 0 0 0 0 0 0 0 0 0 0 0 0 0 0 0 0 0 0 0 0 0 0 0 0 0 0 0 0 0
0 0 0 -0 0 0 0 0 0 0 0 0 0 0 0 0 0 0 0 0 0 0 0 0 0 0 0 0 0 0 0 0 0 0 0 0 0 0 0 0 0 0 0 0
0 0 0 0 0 0 0 0 0 0 0 0 0 0 0 0 0 0 0 0 0 0 0 0 0 0 0 0 0 0 0 0 0 0 0 0 0 0 0 0 0 0 0 0
-0 0 0 0 0 0 0 0 0 0 0 0 0 0 0 0 0 0 0 0 0 0 0 0 0 0 0 0 0 0 0 0 0 0 0 0 0 0 0 0 0 0 0 0
-0 -0 0 0 0 0 0 0 0 0 0 0 0 0 0 0 0 0 0 0 0 0 0 0 0 0 0 0 0 0 0 0 0 0 0 -0 -0 -0 0 0 0 0 0 0
-0 -0 -0 -0 0 0 0 0 0 0 0 0 -0 0 0 0 0 0 0 0 0 0 0 0 0 0 0 0 0 0 0 0 0 0 0 0 0 0 0 0 0 0 0 0
-0 -0 0 0 0 0 0 0 -0 0 0 0 0 0 0 0 0 0 0 0 0 0 0 0 0 0 0 0 0 0 0 0 0 0 0 0 0 0 0 -0 0 0 0 0
-0 -0 0 0 0 0 0 0 -0 0 0 0 0 0 0 0 0 0 0 0 0 0 0 0 0 0 0 0 0 0 0 0 0 0 0 0 0 0 0 0 -0 -0 0 0
-0 0 0 0 0 0 -0 0 0 0 0 0 0 0 0 0 0 0 0 0 0 0 0 -0 0 -0 -0 -0 -0 -0 -0 -0 -0 0 0 0 0 0 0 0 0 -0 0 0
-0 0 0 0 0 0 0 0 0 0 0 0 0 0 0 0 0 0 0 0 0 0 0 -0 -0 -0 -0 -0 -0 -0 -0 0 0 -0 -0 -0 0 0 0 0 0 0 0 0
0 0 0 0 0 0 0 0 0 0 0 0 0 0 0 0 0 0 0 0 0 0 -0 -0 -0 -0 -0 -0 -0 -0 -0 0 0 0 -0 -0 0 0 0 0 0 0 0 0
0 0 0 0 0 0 0 0 0 0 0 0 0 0 0 0 0 0 0 0 0 0 0 0 0 0 0 0 0 0 0 0 0 0 0 0 0 0 0 0 0 0 0 0
0 0 0 0 0 0 0 0 0 0 0 0 0 0 0 0 0 0 0 0 0 0 0 0 0 0 0 0 0 0 0 0 0 0 0 0 0 0 0 0 0 0 0 0
0 0 0 0 0 0 0 0 0 0 0 0 0 0 0 0 0 0 0 0 0 0 0 0 0 0 0 0 0 0 0 0 -0 0 0 0 0 0 0 0 0 0 0 0
0 0 0 0 0 0 0 0 0 0 0 0 0 0 0 0 0 0 0 0 0 0 0 0 0 0 0 0 0 0 0 0 0 -0 -0 -0 -0 0 0 0 0 0 0 0
0 0 0 0 0 0 0 0 0 0 0 0 0 0 0 0 0 0 0 0 0 0 0 0 0 0 0 0 0 0 0 0 0 -0 -0 -0 0 0 -0 0 0 0 0 0
Wind_Speed_500mb
75 73 68 61 56 40 19 5 4 9 20 3 4 7 12 14 8 6 5 7 6 5 2 3 6 5 3 4 15 4 1 9 3 9 5 5 8 3 4 7 10 4 2 7
76 76 72 65 54 41 29 16 8 10 6 4 4 7 4 9 7 5 6 6 5 5 5 2 3 6 6 9 10 14 11 2 4 16 11 7 9 4 3 4 5 6 5 9
76 77 76 68 58 34 27 12 7 8 11 6 8 3 3 5 7 6 8 9 7 5 4 3 3 3 2 4 5 11 11 6 12 12 12 5 3 2 1 7 5 3 9 10
77 76 76 72 61 38 23 16 4 6 6 8 9 2 4 7 9 7 11 3 9 12 8 1 6 3 3 3 12 6 10 10 10 12 14 8 9 7 9 10 8 9 9 10
78 79 77 73 67 49 21 15 13 16 12 17 8 6 6 15 9 16 11 10 14 12 13 17 15 12 8 10 7 9 3 5 7 7 12 14 9 13 13 9 8 12 11 15
74 77 77 74 66 56 20 23 15 8 9 9 4 4 5 15 12 11 14 16 11 9 15 30 27 28 19 16 17 12 10 10 6 8 6 6 11 17 17 8 9 10 10 15
71 75 75 73 66 55 39 26 17 7 8 3 4 9 15 13 12 10 10 20 13 12 13 14 9 13 21 20 24 27 12 12 7 6 6 4 13 3 9 15 11 17 9 12
70 73 76 74 67 55 40 25 8 6 6 10 18 14 10 9 1 2 6 13 14 23 18 7 8 9 6 10 16 14 13 10 5 7 8 8 8 9 14 16 15 19 18 15
73 72 77 75 71 60 42 22 12 9 5 9 6 8 12 5 7 12 4 10 9 20 7 6 8 7 8 8 4 15 12 10 9 6 7 11 15 6 20 13 10 19 37 24
74 71 77 77 71 64 48 15 16 12 11 19 18 5 5 9 5 4 9 4 5 3 5 5 7 9 8 8 9 7 5 4 11 7 10 14 11 21 27 9 15 22 50 42
74 72 77 78 72 63 54 29 16 23 14 38 48 45 19 7 10 4 7 4 4 6 4 7 8 8 8 0 5 7 11 10 9 4 6 14 23 14 15 17 17 26 48 42
75 76 78 79 69 59 52 27 12 27 28 28 42 44 60 58 44 39 16 8 11 13 7 3 3 5 1 7 6 2 4 13 8 16 13 12 60 25 49 28 25 29 43 40
76 78 80 78 63 49 44 28 14 9 15 26 10 6 44 39 26 24 19 15 16 14 17 14 5 6 8 8 10 6 7 8 7 2 10 20 29 49 42 41 44 37 37 40
78 80 83 78 55 36 34 18 11 9 8 6 11 39 49 27 22 19 32 49 19 15 18 9 6 6 16 7 7 9 8 11 10 9 14 22 30 40 46 41 44 40 34 41
78 81 86 72 42 24 11 14 13 9 9 6 21 18 58 53 16 0 11 25 23 15 9 5 7 9 6 4 5 7 30 10 6 6 34 37 49 40 36 39 48 55 49 49
80 83 85 53 26 11 6 2 8 17 18 10 7 19 17 49 38 37 27 13 2 9 6 9 9 4 1 5 6 26 51 60 54 19 54 59 68 76 67 47 50 51 54 54
82 84 70 36 6 7 6 5 2 10 21 5 11 20 17 37 26 20 12 23 16 18 5 6 9 16 5 8 9 37 43 59 65 44 46 33 35 38 47 56 51 49 51 55
81 79 35 11 9 8 6 2 6 12 10 5 2 8 17 17 14 12 18 12 11 8 7 16 21 18 20 6 25 40 41 44 50 67 58 41 36 24 38 50 52 49 48 55
81 57 12 4 2 1 11 29 14 2 8 3 1 2 8 14 12 13 8 5 5 5 14 9 9 4 6 20 42 51 58 38 47 74 67 63 43 48 40 23 45 60 55 54
72 33 7 2 12 31 8 4 1 3 3 4 5 5 7 9 9 7 6 3 2 4 16 8 4 4 6 25 38 52 61 55 44 44 59 68 59 56 41 50 29 51 61 52
57 34 10 31 19 2 1 1 1 1 3 6 8 14 10 22 1 5 6 1 5 7 6 2 1 5 17 44 49 57 52 53 48 42 43 47 45 49 48 41 37 25 55 54
60 41 38 18 7 3 2 1 2 1 5 5 6 26 18 5 6 5 14 6 6 6 8 1 3 5 37 42 53 56 53 53 52 51 45 52 49 43 45 33 30 25 32 44
37 7 7 6 2 9 4 4 5 5 7 8 24 15 7 2 15 11 7 8 6 4 5 4 7 25 48 58 60 59 58 57 56 56 49 45 44 33 37 35 27 15 9 22
8 6 11 5 7 3 5 6 7 9 11 28 27 4 11 11 9 6 7 3 5 7 8 6 5 41 56 58 58 56 60 62 59 57 51 51 47 47 39 33 29 15 11 3
8 5 6 7 7 4 1 4 1 6 20 23 4 11 10 10 8 6 5 9 5 3 7 7 34 49 53 66 64 65 71 58 52 47 45 46 43 40 33 24 23 24 23 17
8 11 6 8 1 6 2 4 4 12 14 5 10 7 6 8 4 7 3 4 5 7 6 29 37 48 56 63 66 69 65 56 63 55 30 40 40 28 15 4 9 7 22 30
8 11 16 26 20 7 6 6 3 10 7 4 7 7 3 4 5 2 6 7 7 19 23 21 34 45 52 56 61 66 65 58 63 43 29 33 30 32 24 19 16 11 6 10
Wind_Direction_500mb
11 9 8 1 353 356 344 337 359 352 313 48 37 152 172 149 170 104 78 99 117 143 76 349 40 76 44 89 155 111 150 133 272 249 266 270 126 102 80 111 299 280 202 285
11 10 9 7 3 4 360 333 283 12 331 143 286 283 121 157 143 166 133 147 147 187 162 45 66 143 344 186 154 176 183 48 25 346 356 341 69 83 207 137 80 212 141 258
10 10 9 8 7 5 0 351 8 359 49 66 133 133 223 166 148 153 158 172 132 120 158 212 215 164 319 261 141 133 110 139 159 194 224 179 237 168 74 124 137 266 242 291
8 8 9 9 11 10 5 14 23 17 314 335 339 66 235 174 186 194 179 150 171 161 193 239 240 188 318 27 154 101 122 196 179 230 236 233 205 194 196 200 181 170 255 259
5 6 7 9 10 17 24 21 3 347 305 311 327 16 266 195 209 156 223 177 185 163 169 189 206 174 207 204 198 163 70 246 149 285 247 191 202 213 220 211 186 256 265 285
2 2 4 5 9 12 22 3 335 320 307 340 43 236 293 275 174 214 201 189 139 173 218 203 218 215 218 199 169 189 162 150 113 255 6 115 303 218 205 204 201 169 215 232
358 358 359 2 3 5 1 348 337 334 284 305 256 299 304 255 220 176 167 163 144 224 189 174 233 272 255 236 233 185 158 145 143 222 68 239 240 268 176 191 211 208 234 232
356 355 354 355 358 356 354 337 296 289 274 253 303 309 309 323 243 237 221 227 250 208 153 71 22 336 345 237 228 199 182 138 147 172 190 289 279 194 187 173 261 207 209 228
356 354 352 349 351 352 349 340 249 265 275 257 250 322 328 330 345 343 298 313 212 168 92 102 162 230 230 289 242 47 83 98 151 139 200 232 233 215 168 113 296 216 201 213
354 352 351 347 347 347 350 332 271 244 261 272 255 201 302 307 14 272 301 157 206 222 101 128 163 236 214 233 209 197 90 107 196 192 230 277 231 151 142 123 236 204 202 212
352 351 350 347 344 343 346 337 272 251 256 280 277 272 234 268 316 186 316 50 294 58 107 155 218 196 235 311 227 185 180 165 207 171 198 277 160 137 171 213 212 207 203 212
349 349 349 346 343 338 343 351 285 274 268 270 282 279 280 284 280 267 240 249 184 193 99 197 120 217 183 162 240 354 255 189 204 178 213 225 177 200 217 242 233 207 204 215
346 347 347 343 340 333 339 341 340 317 287 303 338 43 336 322 296 277 228 226 218 205 227 172 184 217 127 182 236 219 256 173 202 112 247 234 218 230 256 255 250 242 223 215
342 345 344 340 336 331 338 345 346 359 321 328 323 353 354 320 310 271 263 233 232 220 188 166 159 188 188 217 230 189 239 159 224 245 284 269 252 254 259 249 244 241 230 215
340 343 341 337 332 333 8 56 60 42 13 292 300 354 26 30 34 327 263 239 219 188 167 151 216 196 150 199 95 57 341 4 300 270 301 292 274 261 278 252 254 253 233 216
338 341 338 333 327 324 195 210 37 12 357 331 337 331 312 10 12 32 36 38 34 328 285 263 248 232 255 128 137 15 353 343 322 291 313 301 275 271 278 263 261 244 237 226
337 342 337 338 346 83 88 106 33 0 344 303 307 334 338 344 360 3 349 305 298 268 257 210 318 3 155 44 21 316 335 339 329 329 345 334 288 260 265 260 253 242 238 233
337 342 342 45 88 80 75 179 225 323 322 289 357 278 324 334 329 317 316 299 331 12 2 41 4 23 24 37 310 319 327 334 343 345 353 347 1 332 301 265 254 237 235 228
339 347 352 74 96 328 304 303 304 194 196 238 177 223 280 309 289 280 290 340 17 46 48 78 51 4 44 302 298 323 330 332 346 348 348 350 355 355 3 322 263 234 235 232
343 354 2 191 316 312 331 114 158 104 187 248 233 225 261 265 293 308 359 6 314 45 57 98 50 196 195 355 346 340 339 331 331 322 350 344 341 334 339 338 306 250 238 238
351 343 310 314 333 23 145 133 161 190 319 232 260 267 260 324 9 259 31 4 356 21 359 331 63 351 0 346 339 335 332 331 328 323 307 328 318 317 320 323 344 264 241 235
326 308 295 313 339 337 65 32 24 41 249 262 260 318 307 336 337 42 16 50 32 57 313 11 22 261 348 339 336 335 332 332 327 326 312 314 316 309 307 309 313 340 253 232
329 318 300 325 301 36 70 7 319 320 287 305 317 320 12 61 22 69 62 45 31 141 30 321 230 355 345 341 336 332 330 325 324 323 320 311 314 303 296 291 287 338 357 218
302 310 318 174 307 242 191 187 210 287 309 318 314 2 41 16 50 6 71 321 48 23 8 275 314 343 343 346 341 334 331 334 327 326 325 320 316 310 294 275 283 259 289 60
246 242 253 234 276 259 246 266 264 350 324 340 39 57 49 17 69 41 43 23 354 341 241 297 328 337 343 342 342 337 332 329 335 333 327 319 326 324 294 277 263 245 249 245
232 234 274 255 121 343 125 153 332 336 336 47 50 76 61 37 76 56 72 77 252 260 293 332 339 343 342 343 342 342 341 346 348 351 351 14 13 1 346 357 248 256 246 232
230 242 255 265 265 251 236 224 287 5 21 60 57 57 91 119 70 134 147 190 228 297 323 336 349 349 349 345 344 347 352 356 5 18 22 19 27 21 44 61 46 43 178 175
Wind_Speed_850mb
75 73 68 61 56 40 19 5 4 9 20 3 4 7 12 14 8 6 5 7 6 5 2 3 6 5 3 4 15 4 1 9 3 9 5 5 8 3 4 7 10 4 2 7
76 76 72 65 54 41 29 16 8 10 6 4 4 7 4 9 7 5 6 6 5 5 5 2 3 6 6 9 10 14 11 2 4 16 11 7 9 4 3 4 5 6 5 9
76 77 76 68 58 34 27 12 7 8 11 6 8 3 3 5 7 6 8 9 7 5 4 3 3 3 2 4 5 11 11 6 12 12 12 5 3 2 1 7 5 3 9 10
77 76 76 72 61 38 23 16 4 6 6 8 9 2 4 7 9 7 11 3 9 12 8 1 6 3 3 3 12 6 10 10 10 12 14 8 9 7 9 10 8 9 9 10
78 79 77 73 67 49 21 15 13 16 12 17 8 6 6 15 9 16 11 10 14 12 13 17 15 12 8 10 7 9 3 5 7 7 12 14 9 13 13 9 8 12 11 15
74 77 77 74 66 56 20 23 15 8 9 9 4 4 5 15 12 11 14 16 11 9 15 30 27 28 19 16 17 12 10 10 6 8 6 6 11 17 17 8 9 10 10 15
71 75 75 73 66 55 39 26 17 7 8 3 4 9 15 13 12 10 10 20 13 12 13 14 9 13 21 20 24 27 12 12 7 6 6 4 13 3 9 15 11 17 9 12
70 73 76 74 67 55 40 25 8 6 6 10 18 14 10 9 1 2 6 13 14 23 18 7 8 9 6 10 16 14 13 10 5 7 8 8 8 9 14 16 15 19 18 15
73 72 77 75 71 60 42 22 12 9 5 9 6 8 12 5 7 12 4 10 9 20 7 6 8 7 8 8 4 15 12 10 9 6 7 11 15 6 20 13 10 19 37 24
74 71 77 77 71 64 48 15 16 12 11 19 18 5 5 9 5 4 9 4 5 3 5 5 7 9 8 8 9 7 5 4 11 7 10 14 11 21 27 9 15 22 50 42
74 72 77 78 72 63 54 29 16 23 14 38 48 45 19 7 10 4 7 4 4 6 4 7 8 8 8 0 5 7 11 10 9 4 6 14 23 14 15 17 17 26 48 42
75 76 78 79 69 59 52 27 12 27 28 28 42 44 60 58 44 39 16 8 11 13 7 3 3 5 1 7 6 2 4 13 8 16 13 12 60 25 49 28 25 29 43 40
76 78 80 78 63 49 44 28 14 9 15 26 10 6 44 39 26 24 19 15 16 14 17 14 5 6 8 8 10 6 7 8 7 2 10 20 29 49 42 41 44 37 37 40
78 80 83 78 55 36 34 18 11 9 8 6 11 39 49 27 22 19 32 49 19 15 18 9 6 6 16 7 7 9 8 11 10 9 14 22 30 40 46 41 44 40 34 41
78 81 86 72 42 24 11 14 13 9 9 6 21 18 58 53 16 0 11 25 23 15 9 5 7 9 6 4 5 7 30 10 6 6 34 37 49 40 36 39 48 55 49 49
80 83 85 53 26 11 6 2 8 17 18 10 7 19 17 49 38 37 27 13 2 9 6 9 9 4 1 5 6 26 51 60 54 19 54 59 68 76 67 47 50 51 54 54
82 84 70 36 6 7 6 5 2 10 21 5 11 20 17 37 26 20 12 23 16 18 5 6 9 16 5 8 9 37 43 59 65 44 46 33 35 38 47 56 51 49 51 55
81 79 35 11 9 8 6 2 6 12 10 5 2 8 17 17 14 12 18 12 11 8 7 16 21 18 20 6 25 40 41 44 50 67 58 41 36 24 38 50 52 49 48 55
81 57 12 4 2 1 11 29 14 2 8 3 1 2 8 14 12 13 8 5 5 5 14 9 9 4 6 20 42 51 58 38 47 74 67 63 43 48 40 23 45 60 55 54
72 33 7 2 12 31 8 4 1 3 3 4 5 5 7 9 9 7 6 3 2 4 16 8 4 4 6 25 38 52 61 55 44 44 59 68 59 56 41 50 29 51 61 52
57 34 10 31 19 2 1 1 1 1 3 6 8 14 10 22 1 5 6 1 5 7 6 2 1 5 17 44 49 57 52 53 48 42 43 47 45 49 48 41 37 25 55 54
60 41 38 18 7 3 2 1 2 1 5 5 6 26 18 5 6 5 14 6 6 6 8 1 3 5 37 42 53 56 53 53 52 51 45 52 49 43 45 33 30 25 32 44
37 7 7 6 2 9 4 4 5 5 7 8 24 15 7 2 15 11 7 8 6 4 5 4 7 25 48 58 60 59 58 57 56 56 49 45 44 33 37 35 27 15 9 22
8 6 11 5 7 3 5 6 7 9 11 28 27 4 11 11 9 6 7 3 5 7 8 6 5 41 56 58 58 56 60 62 59 57 51 51 47 47 39 33 29 15 11 3
8 5 6 7 7 4 1 4 1 6 20 23 4 11 10 10 8 6 5 9 5 3 7 7 34 49 53 66 64 65 71 58 52 47 45 46 43 40 33 24 23 24 23 17
8 11 6 8 1 6 2 4 4 12 14 5 10 7 6 8 4 7 3 4 5 7 6 29 37 48 56 63 66 69 65 56 63 55 30 40 40 28 15 4 9 7 22 30
8 11 16 26 20 7 6 6 3 10 7 4 7 7 3 4 5 2 6 7 7 19 23 21 34 45 52 56 61 66 65 58 63 43 29 33 30 32 24 19 16 11 6 10
Wind_Direction_850mb
11 9 8 1 353 356 344 337 359 352 313 48 37 152 172 149 170 104 78 99 117 143 76 349 40 76 44 89 155 111 150 133 272 249 266 270 126 102 80 111 299 280 202 285
11 10 9 7 3 4 360 333 283 12 331 143 286 283 121 157 143 166 133 147 147 187 162 45 66 143 344 186 154 176 183 48 25 346 356 341 69 83 207 137 80 212 141 258
10 10 9 8 7 5 0 351 8 359 49 66 133 133 223 166 148 153 158 172 132 120 158 212 215 164 319 261 141 133 110 139 159 194 224 179 237 168 74 124 137 266 242 291
8 8 9 9 11 10 5 14 23 17 314 335 339 66 235 174 186 194 179 150 171 161 193 239 240 188 318 27 154 101 122 196 179 230 236 233 205 194 196 200 181 170 255 259
5 6 7 9 10 17 24 21 3 347 305 311 327 16 266 195 209 156 223 177 185 163 169 189 206 174 207 204 198 163 70 246 149 285 247 191 202 213 220 211 186 256 265 285
2 2 4 5 9 12 22 3 335 320 307 340 43 236 293 275 174 214 201 189 139 173 218 203 218 215 218 199 169 189 162 150 113 255 6 115 303 218 205 204 201 169 215 232
358 358 359 2 3 5 1 348 337 334 284 305 256 299 304 255 220 176 167 163 144 224 189 174 233 272 255 236 233 185 158 145 143 222 68 239 240 268 176 191 211 208 234 232
356 355 354 355 358 356 354 337 296 289 274 253 303 309 309 323 243 237 221 227 250 208 153 71 22 336 345 237 228 199 182 138 147 172 190 289 279 194 187 173 261 207 209 228
356 354 352 349 351 352 349 340 249 265 275 257 250 322 328 330 345 343 298 313 212 168 92 102 162 230 230 289 242 47 83 98 151 139 200 232 233 215 168 113 296 216 201 213
354 352 351 347 347 347 350 332 271 244 261 272 255 201 302 307 14 272 301 157 206 222 101 128 163 236 214 233 209 197 90 107 196 192 230 277 231 151 142 123 236 204 202 212
352 351 350 347 344 343 346 337 272 251 256 280 277 272 234 268 316 186 316 50 294 58 107 155 218 196 235 311 227 185 180 165 207 171 198 277 160 137 171 213 212 207 203 212
349 349 349 346 343 338 343 351 285 274 268 270 282 279 280 284 280 267 240 249 184 193 99 197 120 217 183 162 240 354 255 189 204 178 213 225 177 200 217 242 233 207 204 215
346 347 347 343 340 333 339 341 340 317 287 303 338 43 336 322 296 277 228 226 218 205 227 172 184 217 127 182 236 219 256 173 202 112 247 234 218 230 256 255 250 242 223 215
342 345 344 340 336 331 338 345 346 359 321 328 323 353 354 320 310 271 263 233 232 220 188 166 159 188 188 217 230 189 239 159 224 245 284 269 252 254 259 249 244 241 230 215
340 343 341 337 332 333 8 56 60 42 13 292 300 354 26 30 34 327 263 239 219 188 167 151 216 196 150 199 95 57 341 4 300 270 301 292 274 261 278 252 254 253 233 216
338 341 338 333 327 324 195 210 37 12 357 331 337 331 312 10 12 32 36 38 34 328 285 263 248 232 255 128 137 15 353 343 322 291 313 301 275 271 278 263 261 244 237 226
337 342 337 338 346 83 88 106 33 0 344 303 307 334 338 344 360 3 349 305 298 268 257 210 318 3 155 44 21 316 335 339 329 329 345 334 288 260 265 260 253 242 238 233
337 342 342 45 88 80 75 179 225 323 322 289 357 278 324 334 329 317 316 299 331 12 2 41 4 23 24 37 310 319 327 334 343 345 353 347 1 332 301 265 254 237 235 228
339 347 352 74 96 328 304 303 304 194 196 238 177 223 280 309 289 280 290 340 17 46 48 78 51 4 44 302 298 323 330 332 346 348 348 350 355 355 3 322 263 234 235 232
343 354 2 191 316 312 331 114 158 104 187 248 233 225 261 265 293 308 359 6 314 45 57 98 50 196 195 355 346 340 339 331 331 322 350 344 341 334 339 338 306 250 238 238
351 343 310 314 333 23 145 133 161 190 319 232 260 267 260 324 9 259 31 4 356 21 359 331 63 351 0 346 339 335 332 331 328 323 307 328 318 317 320 323 344 264 241 235
326 308 295 313 339 337 65 32 24 41 249 262 260 318 307 336 337 42 16 50 32 57 313 11 22 261 348 339 336 335 332 332 327 326 312 314 316 309 307 309 313 340 253 232
329 318 300 325 301 36 70 7 319 320 287 305 317 320 12 61 22 69 62 45 31 141 30 321 230 355 345 341 336 332 330 325 324 323 320 311 314 303 296 291 287 338 357 218
302 310 318 174 307 242 191 187 210 287 309 318 314 2 41 16 50 6 71 321 48 23 8 275 314 343 343 346 341 334 331 334 327 326 325 320 316 310 294 275 283 259 289 60
246 242 253 234 276 259 246 266 264 350 324 340 39 57 49 17 69 41 43 23 354 341 241 297 328 337 343 342 342 337 332 329 335 333 327 319 326 324 294 277 263 245 249 245
232 234 274 255 121 343 125 153 332 336 336 47 50 76 61 37 76 56 72 77 252 260 293 332 339 343 342 343 342 342 341 346 348 351 351 14 13 1 346 357 248 256 246 232
230 242 255 265 265 251 236 224 287 5 21 60 57 57 91 119 70 134 147 190 228 297 323 336 349 349 349 345 344 347 352 356 5 18 22 19 27 21 44 61 46 43 178 175